Flag for Canada Weather past 2 weeks in Selkirk, Manitoba, Canada

Now
54 °F

Cool.


Feels Like: 54 °F
Forecast: 50 / 60 °F
Wind: 2 mph from East

Location: Winnipeg The Forks

Current Time: May 28, 2015 at 5:11:42 AM

Latest Report: May 28, 2015 at 4:00 AM


Visibility: N/A

Pressure: 29.98 "Hg

Humidity: 66%

Dew point: 43 °F

Location of SelkirkLocation

Historic Weather in Selkirk — Graph

°F

Selkirk temperature yesterday

Maximum temperature yesterday: 65 °F (at 6:00 PM)
Minimum temperature yesterday: 48 °F (at 7:00 AM)
Average temperature yesterday: 57 °F

Past Weeks' High & Low Weather Summary

 TemperatureHumidityPressure
High85 °F (May 26, 4:00 PM)100% (May 14, 12:00 PM)30.44 "Hg (May 14, 12:00 PM)
Low31 °F (May 18, 9:00 AM)14% (May 22, 5:00 PM)29.70 "Hg (May 25, 6:00 PM)
Average57 °F56%30.02 "Hg
* Reported May 13 3:00 AM — May 28 3:00 AM, Selkirk, Weather by CustomWeather, © 2015

Note: Actual official high and low records may vary slightly from our data, if they occured in-between our weather recording intervals... More about our weather records

Advertising

Selkirk weather history for previous 24 hours

 ConditionsComfort  
Time TempWeatherWind HumidityBarometerVisibility
3:00 AM
Thu, May 28
55 °FCool.2 mph63%29.99 "HgN/A
2:00 AM54 °FCool.2 mph64%30.01 "HgN/A
1:00 AM53 °FCool.3 mph66%30.02 "HgN/A
12:00 AM54 °FCool.3 mph62%30.03 "HgN/A
11:00 PM
Wed, May 27
55 °FRefreshingly cool.2 mph57%30.04 "HgN/A
10:00 PM57 °FRefreshingly cool.3 mph54%30.03 "HgN/A
9:00 PM59 °FRefreshingly cool.3 mph52%30.02 "HgN/A
8:00 PM63 °FMild.5 mph46%30.01 "HgN/A
7:00 PM64 °FMild.3 mph43%30.01 "HgN/A
6:00 PM65 °FMild.6 mph41%30.01 "HgN/A
5:00 PM64 °FMild.6 mph40%30.02 "HgN/A
4:00 PM63 °FMild.7 mph43%30.03 "HgN/A
3:00 PM63 °FMild.7 mph46%30.04 "HgN/A
2:00 PM61 °FRefreshingly cool.8 mph54%30.04 "HgN/A
1:00 PM59 °FRefreshingly cool.8 mph54%30.03 "HgN/A
12:00 PM57 °FRefreshingly cool.8 mph59%30.02 "HgN/A
11:00 AM55 °FCool.10 mph62%30.01 "HgN/A
10:00 AM55 °FCool.7 mph64%30.00 "HgN/A
9:00 AM52 °FCool.8 mph70%29.98 "HgN/A
8:00 AM49 °FCool.9 mph74%29.97 "HgN/A
7:00 AM48 °FCool.8 mph77%29.94 "HgN/A
6:00 AM49 °FCool.7 mph77%29.91 "HgN/A
5:00 AM49 °FCool.7 mph74%29.88 "HgN/A
Weather by CustomWeather, © 2015

See weather overviewHow to use our weather pages